[Date Prev][Date Next][Thread Prev][Thread Next] - [Date Index][Thread Index][Author Index]
2 Line ISS Keps 10-8
- Subject: [sarex] 2 Line ISS Keps 10-8
- From: "Dave Larsen PhD" <doc@xxxxxxxxxxx>
- Date: Sat, 8 Oct 2005 04:30:31 -0700
ISS
1 25544U 98067A 05281.10054398 .00017580 00000-0 12592-3 0 5074
2 25544 051.6452 042.5299 0001759 093.0653 259.4960 15.73807383393447
----
Via the sarex mailing list at AMSAT.ORG courtesy of AMSAT-NA.
To unsubscribe, send "unsubscribe sarex" to Majordomo@amsat.org
AMSAT Home